Regional Weather Roundup
Issued by NWS Kansas City/Pleasant Hill, MO

Home | Current Version | Previous Version | Graphics & Text | Print | Product List | Glossary Off
Versions: 1 2 3 4 5 6 7 8 9 10 11 12 13 14 15 16 17 18 19 20 21 22 23 24 25 26 27 28 29 30 31 32 33 34 35 36 37 38 39 40 41 42 43 44 45 46 47 48 49 50

000
ASUS43 KEAX 191410
RWREAX

WEATHER ROUNDUP FOR EASTERN KANSAS AND NORTHWEST MISSOURI
NATIONAL WEATHER SERVICE KANSAS CITY/PLEASANT HILL MO
900 AM CDT THU APR 19 2018

KSZ040-057-103>105-MOZ028-029-037-043-191500-
...KANSAS CITY METROPOLITAN AREA...

CITY           SKY/WX    TMP DP  RH WIND       PRES   REMARKS
K.C. INTL      SUNNY     39  30  70 N9        30.42R WCI  33
K.C. DOWNTOWN  SUNNY     39  29  67 NW6       30.43R WCI  35
LEES SUMMIT    SUNNY     38  30  73 N13       30.42R WCI  30
OLATHE - IXD   SUNNY     39  30  70 N9        30.43R WCI  33
OLATHE - OJC   MOSUNNY   38  29  70 N8        30.42R WCI  32
LAWRENCE       SUNNY     40  30  67 N10       30.44R WCI  33

$$

MOZ001>008-011>017-020>025-030>033-038>040-044>046-053-054-191500-
...NORTHERN AND CENTRAL MISSOURI...

CITY           SKY/WX    TMP DP  RH WIND       PRES   REMARKS
ST. JOSEPH     SUNNY     38  31  76 N12       30.44R WCI  30
MOSBY          SUNNY     37  30  75 N9        30.43R WCI  31
WARRENSBURG    SUNNY     37  30  75 NW6       30.42R WCI  33
WHITEMAN AFB   MOSUNNY   38  28  68 N8        30.36R WCI  32
CLINTON        SUNNY     39  28  65 N12       30.41R WCI  32
SEDALIA        SUNNY     39  30  70 N12       30.40R WCI  32
WARSAW         NOT AVBL
CHILLICOTHE      N/A     39  30  70 VRB7      30.42R WCI  34
KIRKSVILLE     MOSUNNY   38  32  79 NW9       30.39R WCI  31

$$

MOZ041-047>049-056>058-063>065-088>090-097-191500-
...EASTERN AND SOUTHERN MISSOURI...

CITY           SKY/WX    TMP DP  RH WIND       PRES   REMARKS
ST. LOUIS INTL CLOUDY    39  29  67 N13       30.34R WCI  31
SPIRIT OF STL  CLOUDY    40  29  64 N12       30.35R WCI  33
COLUMBIA       CLOUDY    37  28  70 NW8       30.37R WCI  31
JEFFERSON CITY CLOUDY    37  28  70 NW7       30.39R WCI  32
ROLLA          CLOUDY    36  27  69 NW14      30.35R WCI  27
OSAGE BEACH    MOSUNNY   39  27  62 NE9G17    30.39R WCI  33
SPRINGFIELD    CLOUDY    40  29  64 N17       30.35R WCI  31
BRANSON        PTSUNNY   39  28  65 N12       30.34R WCI  32
JOPLIN         SUNNY     43  33  68 N10       30.39R
WEST PLAINS    CLOUDY    43  27  53 NW12      30.32R

$$

IAZ060-094-KSZ022-034>040-054-083-096-NEZ052-066-093-191500-
...KANSAS...SOUTHEAST NEBRASKA AND IOWA...

CITY           SKY/WX    TMP DP  RH WIND       PRES   REMARKS
TOPEKA         SUNNY     40  32  73 N10       30.44R WCI  33
MANHATTAN      SUNNY     40  31  70 N8        30.46R WCI  34
EMPORIA        SUNNY     38  29  70 N12       30.43R WCI  30
CHANUTE        CLOUDY    41  31  67 N13       30.42R WCI  34
WICHITA        MOSUNNY   42  32  67 N14       30.44R WCI  35
OMAHA          SUNNY     38  32  79 N10       30.45R WCI  31
LINCOLN        SUNNY     38  32  79 N5        30.46R WCI  34
FALLS CITY     SUNNY     39  31  72 N7        30.45R WCI  34
LAMONI         SUNNY     38  29  70 N12       30.40R WCI  30
DES MOINES     MOSUNNY   39  28  64 N5        30.43R

$$




USA.gov is the U.S. government's official web portal to all federal, state and local government web resources and services.